Theta_e
327 327 328 328 328 328 327 323 321 323 321 319 316 315 319 321 321 321 319 320 318 319 318 319 314 315 317 320 321 321 322 314 317 318 318 316 316 316 314 315 318 316 323 353
324 324 325 327 328 328 328 324 323 322 323 319 318 319 322 322 321 322 319 318 318 318 320 321 317 320 320 320 319 319 318 317 317 318 318 318 319 318 315 313 314 317 320 337
321 322 323 324 326 327 327 324 321 325 326 323 322 321 322 322 325 323 324 318 320 320 320 319 321 319 320 321 320 320 320 316 316 316 318 319 321 321 319 315 314 316 323 347
319 320 322 323 324 325 326 325 323 325 322 323 322 323 324 325 327 325 324 318 320 320 320 319 320 318 318 320 321 319 314 316 318 317 319 320 321 322 322 319 318 330 348 344
318 318 321 323 323 325 326 326 326 326 325 325 323 322 324 325 325 323 323 321 321 319 320 321 322 317 317 317 319 319 314 316 320 320 321 320 321 324 330 321 341 345 342 340
314 316 318 323 322 323 324 326 326 325 323 321 322 323 325 326 321 323 323 322 320 320 319 320 318 322 320 317 317 317 316 316 316 318 321 321 321 324 334 340 340 340 341 338
312 313 315 321 322 322 323 324 323 324 322 321 322 323 323 323 321 321 322 321 320 320 320 320 320 318 320 320 317 318 317 318 316 320 321 321 319 333 338 339 339 341 341 341
311 311 312 316 321 321 324 324 323 323 322 321 321 322 322 322 322 320 322 321 318 319 319 316 316 316 315 316 317 315 317 316 319 319 321 320 323 330 330 337 337 335 339 341
310 311 310 312 319 320 320 322 321 322 318 321 322 321 321 319 319 319 320 320 321 318 314 316 318 318 317 318 317 315 312 312 315 318 321 321 320 328 333 331 335 333 334 334
310 309 309 309 311 318 319 320 320 320 317 321 321 321 320 320 320 318 321 320 318 318 316 319 317 317 318 321 320 317 315 314 313 313 317 321 326 329 325 326 328 332 331 332
313 312 310 309 309 313 318 318 319 319 317 319 320 321 321 320 320 319 320 321 319 318 316 321 317 317 316 316 317 315 315 315 313 311 315 316 328 328 325 328 332 331 331 331
314 314 313 312 310 311 315 316 317 318 317 317 318 319 319 319 319 320 320 321 318 318 316 322 318 319 319 317 318 317 316 313 315 313 313 324 328 330 330 331 330 328 325 328
315 315 314 312 312 312 314 315 316 317 315 314 315 318 319 319 319 319 319 319 319 319 318 320 321 320 318 319 317 320 320 318 323 323 325 325 326 330 329 329 328 326 323 322
315 315 314 314 313 313 313 314 315 315 313 313 314 316 316 317 319 318 318 318 318 318 318 319 319 318 317 316 316 319 317 316 314 317 322 323 324 326 326 325 323 323 322 320
314 314 313 313 314 315 314 314 314 314 314 314 312 314 315 315 316 317 318 318 319 318 317 316 315 317 314 313 314 318 318 316 314 315 322 321 323 323 323 323 324 324 323 322
314 313 312 312 312 312 312 312 312 312 313 312 314 315 315 315 317 317 318 318 318 317 318 315 318 318 316 314 313 316 320 320 320 320 323 322 322 323 322 321 321 322 322 321
313 313 312 312 312 312 311 310 312 312 313 312 316 317 316 315 316 318 318 318 318 318 318 316 317 316 316 311 315 317 320 320 320 321 321 321 321 319 318 317 318 318 321 322
311 311 311 312 311 311 312 312 311 312 312 314 317 316 316 317 317 316 317 316 317 317 317 317 315 316 313 312 314 317 319 319 319 319 318 318 316 316 316 316 315 316 318 320
313 313 313 314 314 313 312 312 312 312 313 313 317 316 316 316 316 317 317 317 315 316 312 313 315 313 314 312 314 314 317 318 316 316 316 317 317 315 314 315 315 317 319 319
315 315 314 313 313 313 313 313 313 312 313 315 318 317 318 317 317 317 316 318 317 315 313 315 311 313 317 316 317 317 317 318 317 315 315 315 315 315 315 315 315 315 314 317
314 315 313 312 313 313 315 316 315 316 317 316 317 316 318 317 316 317 317 317 317 320 318 315 315 314 314 317 318 316 319 318 318 318 317 316 316 316 315 315 314 314 314 317
314 316 314 313 312 316 317 316 316 316 320 318 317 317 318 319 319 317 317 318 317 320 317 317 318 314 321 320 318 318 318 318 317 317 317 316 316 316 315 315 317 317 316 316
316 317 318 316 316 315 319 318 316 317 318 318 319 318 318 318 318 318 316 319 319 317 318 319 317 318 321 321 319 317 317 317 316 316 316 315 314 314 315 316 316 317 316 315
315 317 310 315 318 316 315 315 317 318 318 318 319 318 318 318 317 318 320 316 316 317 318 320 316 319 319 318 318 317 317 317 316 315 313 313 315 315 315 317 317 317 317 318
317 317 314 316 316 317 316 316 317 316 316 317 318 317 317 316 319 317 317 319 318 314 315 318 317 318 316 316 316 316 315 315 314 313 312 314 314 315 315 316 316 316 317 317
316 315 315 315 315 315 316 316 315 315 315 317 315 314 315 314 314 318 319 317 317 318 315 315 317 316 315 314 314 314 314 313 313 311 312 312 313 314 314 314 315 315 315 316
315 315 315 315 315 315 316 315 315 315 315 312 312 313 314 311 315 317 313 316 313 311 312 316 316 315 314 314 313 313 312 312 311 311 311 311 312 314 313 313 313 314 313 313
Wind_Speed
21 21 21 23 25 26 21 8 2 13 16 5 2 3 5 4 13 28 10 3 4 5 2 4 5 11 9 7 5 6 2 5 1 4 8 5 7 7 5 5 5 1 4 1
22 21 21 21 22 23 24 18 7 13 16 3 4 6 6 11 10 8 6 5 6 2 2 2 4 5 1 8 5 8 4 2 4 10 6 7 5 4 5 4 3 4 4 3
23 22 21 20 19 18 18 7 3 4 7 9 3 5 6 5 13 8 8 7 4 2 3 5 4 2 3 5 7 8 6 3 7 6 5 4 6 10 6 7 4 5 5 7
23 22 20 18 17 16 12 4 4 3 3 4 5 2 4 6 7 3 13 6 5 4 3 3 6 2 4 5 8 4 6 4 4 6 5 2 5 9 8 5 5 5 6 7
23 21 19 17 13 12 9 5 4 8 10 10 2 2 3 4 7 6 7 3 12 3 5 3 5 7 3 6 1 4 2 3 3 2 2 4 6 10 12 6 9 8 8 4
22 21 19 16 12 12 5 5 8 5 7 5 3 3 4 8 10 6 10 5 4 9 4 5 4 15 12 10 9 4 5 5 3 3 2 4 5 4 5 8 5 12 6 6
22 20 19 17 13 15 15 13 9 3 4 2 4 6 7 8 9 5 14 2 3 6 14 4 10 14 19 13 6 5 6 5 3 2 2 4 5 8 17 17 12 12 12 9
23 21 19 18 16 16 17 16 10 5 3 6 8 8 4 16 20 4 8 9 4 5 9 1 4 4 5 2 5 6 6 4 3 4 3 4 3 2 3 5 2 10 8 12
24 22 21 20 20 18 20 21 17 10 2 6 17 5 7 3 3 6 5 2 8 5 2 2 4 3 5 2 1 4 6 7 4 2 5 6 4 5 15 9 2 3 8 6
26 24 23 21 21 21 20 23 19 17 7 9 8 4 3 4 2 3 6 7 5 8 4 2 2 4 3 7 8 3 3 3 5 2 2 4 1 5 2 6 5 9 11 11
26 25 24 23 22 22 23 25 21 22 9 15 12 14 17 12 6 2 5 3 6 4 2 1 3 4 5 3 6 8 7 6 4 3 3 4 3 2 5 10 21 20 13 11
25 24 22 23 23 24 23 25 23 22 25 8 10 19 31 28 24 17 8 5 2 6 2 3 1 2 3 2 8 2 4 7 6 5 6 3 8 18 27 25 25 17 15 13
23 22 21 21 18 19 27 24 24 23 20 21 25 31 31 26 26 22 15 15 7 3 3 6 2 4 3 2 5 3 1 5 5 5 3 10 23 25 24 18 16 13 12 12
20 20 19 20 21 20 22 27 28 26 5 4 9 13 17 19 29 26 23 14 12 11 7 7 2 3 8 5 3 3 4 5 7 4 6 12 15 20 18 14 11 10 7 3
11 12 14 16 19 19 22 24 26 25 15 2 5 10 17 18 20 26 28 18 20 11 6 3 4 6 3 2 5 1 3 6 5 5 22 11 16 21 18 17 15 11 7 5
8 1 5 8 11 13 13 10 17 18 17 1 2 6 11 13 16 21 29 25 18 17 7 6 5 5 5 3 3 1 5 9 24 10 29 24 22 26 18 14 9 5 5 6
22 14 10 9 9 14 5 3 1 16 17 4 3 3 3 11 16 16 24 26 23 14 14 7 7 4 5 3 2 4 23 23 30 30 31 21 19 12 11 10 8 4 6 7
19 19 18 17 12 6 1 3 7 20 14 6 2 1 1 12 6 2 22 10 9 6 7 3 4 4 4 2 5 17 27 30 30 26 13 21 18 18 13 7 6 5 9 8
16 13 10 10 8 6 11 17 17 17 5 4 2 2 1 6 5 7 10 13 3 6 2 1 5 0 2 7 8 13 32 23 26 22 20 21 16 10 7 7 7 9 10 8
14 13 5 4 6 6 6 3 4 6 4 3 2 3 2 9 6 3 2 1 1 2 3 6 3 3 8 16 13 11 28 23 27 26 19 14 11 11 10 11 9 9 7 10
13 8 6 4 1 3 2 2 3 3 2 2 3 3 2 13 2 3 2 1 1 2 4 4 2 3 7 19 17 15 22 26 20 14 18 18 17 13 11 10 11 10 8 8
12 3 3 3 4 3 2 3 3 1 3 1 2 3 6 4 1 2 1 2 2 3 1 3 2 4 5 9 27 25 30 30 26 22 20 17 15 12 10 7 7 8 7 7
3 1 2 3 2 3 3 5 4 4 5 5 8 2 3 4 5 4 4 2 3 1 2 2 4 4 18 24 35 34 30 26 22 17 11 8 6 11 9 8 7 7 6 5
3 4 5 2 3 3 1 1 2 3 8 12 13 4 5 5 4 2 4 2 2 2 1 2 4 17 32 36 35 32 25 20 15 11 9 8 15 10 8 6 6 6 8 11
2 1 2 3 4 4 2 2 2 6 8 9 1 4 4 2 2 2 3 1 2 2 1 3 17 2 23 31 30 28 22 17 14 13 14 14 12 11 9 9 9 11 12 13
2 3 4 8 4 6 5 5 4 6 7 4 4 2 3 3 1 2 2 2 1 2 2 15 4 19 22 24 22 19 18 17 15 12 15 14 13 13 14 12 13 13 11 10
2 4 5 4 3 2 4 2 6 6 3 2 3 4 2 2 1 1 3 2 2 7 12 11 19 24 22 19 13 15 15 14 13 14 13 13 12 13 14 14 14 13 11 12
Wind_Direction
324 327 330 332 334 341 346 2 348 169 169 168 197 184 216 262 291 307 293 260 201 204 261 261 244 187 186 164 159 133 193 134 322 271 291 172 159 183 143 123 267 120 156 243
315 316 320 325 329 338 346 332 282 200 210 178 259 273 274 269 280 279 250 239 209 207 243 311 229 130 216 162 111 159 192 37 26 340 358 9 28 314 157 126 87 181 121 219
308 309 310 315 319 327 337 320 334 313 226 251 130 358 287 299 305 279 316 241 109 13 281 179 199 178 172 130 117 116 99 113 146 188 195 243 308 314 260 123 102 167 200 137
300 300 302 307 308 309 323 266 258 343 291 335 327 280 283 318 326 324 340 310 168 147 302 299 158 219 96 48 135 80 105 140 151 201 210 300 299 315 323 173 161 134 197 179
293 292 292 297 309 305 299 277 333 338 302 294 313 291 265 288 320 358 319 357 331 227 151 210 216 153 171 180 210 115 31 183 139 250 282 9 310 348 30 75 117 103 142 105
292 287 282 280 283 280 257 231 260 300 275 317 12 242 333 336 355 317 339 312 18 352 170 112 11 197 184 177 145 132 114 122 89 249 302 29 342 82 97 62 20 139 151 184
291 285 276 265 260 266 254 248 285 268 273 242 232 329 338 347 323 270 305 24 109 334 328 171 89 57 95 109 55 118 124 111 114 183 46 175 234 115 108 88 47 61 91 129
286 281 273 256 247 252 252 255 239 228 247 254 295 302 314 322 316 291 280 284 57 337 331 344 83 10 25 13 111 87 104 118 106 132 168 288 93 118 126 135 11 7 79 113
280 275 267 255 236 242 254 257 242 232 222 230 255 276 280 273 290 312 323 224 236 19 42 336 136 169 191 176 61 75 85 91 112 129 150 192 203 100 120 111 116 8 84 65
279 273 265 255 244 229 242 255 242 234 223 235 230 212 254 276 275 250 295 337 358 84 18 62 169 156 256 180 198 158 83 48 157 178 179 266 337 315 186 144 191 119 101 87
280 270 262 254 242 227 229 241 242 233 237 247 230 249 241 240 232 214 309 6 358 29 40 124 274 114 241 118 176 167 173 158 193 139 140 251 262 2 163 138 130 129 115 100
277 274 269 254 243 227 224 235 234 240 237 249 231 249 242 246 250 263 263 170 200 224 111 273 164 2 84 68 277 146 178 173 172 165 199 232 104 127 131 138 136 135 128 136
270 266 261 253 241 229 213 232 234 232 236 256 254 252 257 247 245 247 223 212 183 229 263 222 171 160 92 216 228 140 35 137 110 93 290 129 116 133 141 150 142 144 136 136
271 260 251 242 233 224 214 225 232 233 197 245 266 260 245 250 233 224 225 231 207 277 318 257 125 246 186 200 176 120 208 121 128 74 97 116 140 148 154 148 142 142 134 100
280 255 242 232 226 221 220 227 234 233 209 243 273 282 260 244 230 222 225 234 217 278 307 201 198 178 145 344 50 235 211 163 132 200 170 148 162 169 162 154 161 166 169 164
35 302 223 218 216 198 179 205 236 224 223 237 280 263 262 239 222 215 210 214 223 262 221 236 132 151 126 102 176 325 151 151 134 138 167 143 134 155 157 154 169 187 210 216
52 67 94 114 133 158 129 180 236 182 185 209 226 244 270 212 195 202 207 217 245 232 233 228 152 145 122 95 150 96 126 124 124 133 134 127 154 152 161 171 183 202 210 221
56 67 83 106 113 149 201 250 164 166 173 249 249 356 39 129 122 201 221 216 197 244 223 141 120 106 101 124 190 131 139 136 139 144 154 157 158 159 171 197 223 243 243 245
360 357 5 43 46 53 104 138 157 181 229 301 269 109 130 182 245 236 175 173 216 232 109 129 114 156 166 201 197 153 155 151 146 141 138 144 153 161 169 180 198 218 230 247
21 32 34 57 108 60 85 118 156 205 244 249 303 63 130 188 207 288 219 278 36 68 246 138 105 221 193 190 201 211 178 171 158 143 146 156 161 172 179 199 214 221 249 241
19 27 44 144 140 286 283 233 225 176 195 222 275 137 137 204 202 187 70 145 124 89 268 127 220 245 219 202 203 187 175 170 171 168 169 183 189 186 180 194 212 226 240 213
334 321 222 217 279 276 314 294 322 11 44 318 282 268 159 116 186 90 5 125 73 210 199 110 230 255 171 198 196 167 164 162 159 168 166 168 177 181 189 183 177 185 193 222
348 327 221 219 249 32 14 354 327 9 12 2 329 356 73 79 94 42 12 74 214 34 74 219 225 181 151 158 153 146 151 154 153 148 158 179 169 158 157 162 191 194 219 233
341 338 353 25 9 30 333 273 304 337 355 347 351 17 57 53 60 38 327 262 63 58 81 242 323 166 148 148 148 150 148 156 157 154 158 146 143 138 156 164 170 177 169 154
314 319 35 19 317 292 342 25 14 350 354 358 247 52 86 62 86 237 278 260 239 107 215 336 330 121 144 141 142 143 146 151 152 151 148 145 147 151 142 142 136 150 152 155
344 35 22 353 40 11 48 60 33 6 1 357 18 51 61 56 96 273 27 50 119 83 330 319 10 139 128 126 135 141 147 149 149 150 158 161 159 155 146 155 147 148 143 148
61 39 43 84 73 34 23 46 16 358 37 68 25 30 55 307 131 173 8 77 63 331 332 6 151 138 137 142 142 146 147 144 145 143 158 172 164 157 168 160 147 158 148 138